Regional Weather Roundup
Issued by NWS Kansas City/Pleasant Hill, MO

Home | Current Version | Previous Version | Text Only | Print | Product List | Glossary On
Versions: 1 2 3 4 5 6 7 8 9 10 11 12 13 14 15 16 17 18 19 20 21 22 23 24 25 26 27
000
ASUS43 KEAX 022310
RWREAX

WEATHER ROUNDUP FOR EASTERN KANSAS AND NORTHWEST MISSOURI
NATIONAL WEATHER SERVICE KANSAS CITY/PLEASANT HILL MO
500 PM CST FRI DEC 02 2016

KSZ040-057-103>105-MOZ028-029-037-043-030000-
...KANSAS CITY METROPOLITAN AREA...

CITY           SKY/WX    TMP DP  RH WIND       PRES   REMARKS
K.C. INTL      PTCLDY    43  24  47 N5        30.29R
K.C. DOWNTOWN  CLEAR     48  26  42 N3        30.29R
LEES SUMMIT    CLEAR     46  26  45 NE3       30.29R
OLATHE - IXD   CLEAR     39  28  64 N7        30.28R WCI  34
OLATHE - OJC   CLEAR     45  24  43 NE6       30.28R
LAWRENCE       CLEAR     46  28  49 N3        30.28R

$$

MOZ001>008-011>017-020>025-030>033-038>040-044>046-053-054-030000-
...NORTHERN AND CENTRAL MISSOURI...

CITY           SKY/WX    TMP DP  RH WIND       PRES   REMARKS
ST. JOSEPH     PTCLDY    40  27  59 NW6       30.31R
MOSBY          CLEAR     45  27  49 CALM      30.29R
WARRENSBURG    CLEAR     45  27  49 NE3       30.29R
WHITEMAN AFB   CLEAR     44  27  51 CALM      30.28R
CLINTON        CLEAR     45  27  49 CALM      30.28R
SEDALIA        PTCLDY    45  26  47 N5        30.30R
WARSAW         NOT AVBL
CHILLICOTHE      N/A     41  29  62 CALM      30.30S
KIRKSVILLE     CLEAR     39  29  67 CALM      30.28S

$$

MOZ041-047>049-056>058-063>065-088>090-097-030000-
...EASTERN AND SOUTHERN MISSOURI...

CITY           SKY/WX    TMP DP  RH WIND       PRES   REMARKS
ST. LOUIS INTL PTCLDY    44  28  53 NE6       30.30R
SPIRIT OF STL  PTCLDY    39  31  72 CALM      30.30R
COLUMBIA       CLEAR     44  26  49 W3        30.28S
JEFFERSON CITY CLEAR     47  26  44 NW3       30.29S
ROLLA          CLEAR     42  27  55 CALM      30.26S
OSAGE BEACH    CLEAR     48  23  37 N3        30.27F
SPRINGFIELD    PTCLDY    51  23  33 NE8       30.23R
BRANSON        CLOUDY    52  32  46 E7        30.24R
JOPLIN         CLOUDY    53  28  38 E7        30.23R
WEST PLAINS    PTCLDY    50  28  42 E3        30.25F

$$

IAZ060-094-KSZ022-034>040-054-083-096-NEZ052-066-093-030000-
...KANSAS...SOUTHEAST NEBRASKA AND IOWA...

CITY           SKY/WX    TMP DP  RH WIND       PRES   REMARKS
TOPEKA         CLEAR     44  26  49 NE6       30.28S
MANHATTAN      CLEAR     45  26  47 NE3       30.27S
EMPORIA        CLEAR     45  23  42 E7        30.25S
CHANUTE        CLEAR     51  24  34 NE8       30.24R
WICHITA        PTCLDY    50  20  30 NE10      30.22S
OMAHA          MOCLDY    36  28  73 N3        30.31R
LINCOLN        CLEAR     39  27  62 N6        30.31R WCI  35
FALLS CITY       N/A    N/A N/A N/A MISG      30.30R
LAMONI         CLEAR     37  28  70 NW7       30.27F WCI  32
DES MOINES     CLOUDY    40  32  73 N9        30.29S WCI  34

$$





USA.gov is the U.S. government's official web portal to all federal, state and local government web resources and services.